Location: *
(47.2969°N, 10.2930°E)
Time: 04:43:14
(UTC+00:00)

IGS 5A - Pass Details

Date: 09 April 2020
Orbit: 585 x 587 km, 97.6° (Epoch: 19 May)

Event Time Altitude Azimuth Distance (km) Brightness Sun altitude
Exits shadow 20:20:36 68° 92° (E) 636 3.3 -21.9°
Maximum altitude 20:20:45 69° 74° (ENE) 632 3.4 -22.0°
Drops below altitude 10° 20:24:54 10° 352° (N) 1,921 6.7 -22.5°
Sets 20:27:04 0° 350° (N) 2,826 7.8 -22.8°
